Location: Drocourt
(49.0571°N, 1.7669°E)
Time: 22:49:31
(UTC+00:00)

SR - Pass Details

Date: 22 April 2024
Orbit: 579 x 859 km, 66.7° (Epoch: 25 May)

Event Time Altitude Azimuth Distance (km) Brightness Sun altitude
Rises 06:37:25 0° 322° (NW) 3,103 ? 16.8°
Reaches altitude 10° 06:41:45 10° 358° (N) 2,101 ? 17.5°
Maximum altitude 06:43:06 11° 15° (NNE) 2,005 ? 17.8°
Drops below altitude 10° 06:44:26 10° 31° (NNE) 2,052 ? 18.0°
Sets 06:48:29 0° 68° (ENE) 2,893 ? 18.7°
